Location: *
(51.0333°S, 178.4667°E)
Time: 16:06:59
(UTC+00:00)

Cosmos 2263 Rocket - Pass Details

Date: 15 November 2019
Orbit: 825 x 847 km, 71.0° (Epoch: 14 December)

Event Time Altitude Azimuth Distance (km) Brightness Sun altitude
Exits shadow 09:25:47 18° 52° (NE) 1,958 3.5 -13.6°
Maximum altitude 09:27:44 22° 79° (E) 1,795 3.5 -13.8°
Drops below altitude 10° 09:31:57 10° 127° (SE) 2,495 4.7 -14.1°
Sets 09:34:57 0° 141° (SE) 3,442 5.6 -14.4°
